www.pogodaiklimat.ru

Погода и климат >> Архив погоды >> Молдова >> Кишинев


АРХИВ ПОГОДЫ в Кишиневе

Время (UTC), дата Ветер
(напр.,м/с)
 
Видим.   Явления Облачность Т
(С)
Тd
(С)
f
(%)
Тe
(С)
Тes
(С)
Комфортность P
(гПа)
Po
(гПа)
Тmin
(С)
Tmax
(С)
R
(мм)
R24
(мм)
S
(см)
15 15.07 З 3 20 км 10/8 600 м
[Cb calv Ac trans]
+23.1 +6.4 34 +24 +24 комфорт 1012.5 993.0
18 15.07 З 1 20 км 9/8 600 м
[Cb calv Ac trans]
+20.3 +8.6 47 +23 +23 комфорт 1013.5 993.8 +25.8
21 15.07 С 2 20 км 6/0
[Ac trans Ci fib]
+18.4 +10.5 60 +19 +19 прохладно 1014.4 994.5
00 16.07 С 2 20 км 8/0
[Ac trans Ci fib]
+16.2 +9.4 64 +16 +16 прохладно 1015.2 995.2
03 16.07 С 3 20 км 6/3 600 м
[Cb calv Ac trans]
+15.3 +9.2 67 +15 +15 холодно 1016.1 996.0
06 16.07 С 3 20 км 8/0
[Ac trans Ci fib]
+18.7 +9.8 56 +19 +23 прохладно 1016.6 996.7 +15.3
09 16.07 С 4 20 км 9/3 600 м
[Cu hum Ac As]
+22.3 +9.1 43 +24 +27 комфорт 1017.1 997.4
12 16.07 СЗ 3 20 км 10/5 600 м
[Cu med, cong Ac As]
+23.5 +9.1 40 +24 +26 комфорт 1017.1 997.5
15 16.07 ЮВ 1 20 км 9/8 600 м
[Cu med, cong Ac As]
+23.2 +8.9 40 +25 +25 комфорт 1017.1 997.5
18 16.07 С 2 20 км {ливн. осадки} 10/5 600 м
[Cb calv Ac trans]
+19.6 +11.4 59 +21 +21 комфорт 1018.1 998.2 +24.3 2
21 16.07 С 2 20 км 10/6 600 м
[Sc Ac trans]
+18.7 +11.3 62 +20 +20 по сезону 1018.6 998.7
00 17.07 С 4 20 км 8/6 600 м
[Cb calv Ac trans]
+18.2 +9.8 58 +18 +18 по сезону 1018.7 998.7
03 17.07 С 3 20 км {ливн. осадки} 10/8 600 м
[Sc Ac trans]
+17.5 +10.1 62 +18 +18 прохладно 1019.0 999.0
06 17.07 С 2 20 км {ливн. осадки} 10/3 600 м
[Sc Ac trans]
+18.8 +10.1 57 +20 +22 по сезону 1020.0 1000.0 +17.3 0.0
09 17.07 СВ 2 20 км 8/3 600 м
[Cu hum Ac trans Ci fib]
+24.6 +7.7 34 +25 +32 комфорт 1019.6 1000.0
12 17.07 С 3 20 км 9/4 600 м
[Cu med, cong Ac trans]
+25.4 +8.4 34 +26 +29 жарко 1018.8 999.3
15 17.07 СЗ 4 20 км 8/4 600 м
[Cu hum Ac trans]
+26.7 +7.7 30 +27 +28 жарко 1017.9 998.5
18 17.07 С 2 20 км 1/0
[Ci fib]
+23.4 +6.7 34 +24 +24 комфорт 1018.6 999.0 +27.0
21 17.07 С 1 20 км ясно +20.7 +7.7 43 +23 +23 комфорт 1019.5 999.7
00 18.07 С 2 20 км ясно +18.8 +7.9 49 +20 +20 тепло 1019.7 999.7
03 18.07 С 2 20 км 3/0
[Ci fib]
+18.0 +7.7 51 +19 +19 по сезону 1020.3 1000.3
06 18.07 С 3 20 км ясно +21.4 +8.3 43 +23 +29 комфорт 1020.5 1000.7 +17.9
09 18.07 С 2 20 км 8/8 600 м
[Cu med, cong]
+25.5 +5.7 28 +25 +28 комфорт 1019.5 1000.0
12 18.07 С 3 20 км 8/8 600 м
[Cu med, cong]
+27.6 +5.8 25 +27 +29 жарко 1018.1 998.7
15 18.07 СВ 2 20 км 9/9 600 м
[Cu med, cong]
+26.7 +4.5 24 +26 +26 жарко 1017.4 998.0
18 18.07 С 2 20 км 4/1 600 м
[Cu hum Ac lent Ci fib]
+24.6 +6.8 32 +25 +25 комфорт 1017.9 998.4 +28.4
21 18.07 С 3 20 км 3/0
[Ci fib]
+22.1 +8.2 41 +23 +23 комфорт 1018.7 999.0
00 19.07 С 1 20 км ясно +20.2 +8.8 48 +23 +23 комфорт 1018.7 998.9
03 19.07 С 4 20 км 3/0
[Ci fib]
+19.4 +10.1 55 +20 +20 по сезону 1018.6 998.7
06 19.07 С 1 20 км 3/0
[Ci fib]
+22.7 +12.1 51 +25 +33 комфорт 1019.3 999.6 +19.2
09 19.07 С 3 20 км 3/3 600 м
[Cu hum]
+26.8 +8.3 31 +27 +37 жарко 1018.4 999.0
12 19.07 С 2 20 км 5/5 600 м
[Cu hum]
+28.6 +7.8 27 +28 +35 жарко 1016.8 997.5
15 19.07 СВ 1 20 км 4/4 600 м
[Cu hum]
+28.7 +6.2 24 +28 +30 жарко 1015.8 996.6
18 19.07 штиль 0 20 км ясно +26.4 +6.4 28 +26 +26 жарко 1015.9 996.5 +29.9
21 19.07 штиль 0 20 км ясно +24.1 +8.1 36 +25 +25 комфорт 1016.0 996.5
00 20.07 штиль 0 20 км ясно +21.1 +9.0 46 +22 +22 комфорт 1015.6 995.9
03 20.07 штиль 0 20 км ясно +17.3 +10.7 65 +17 +17 прохладно 1016.0 996.0
06 20.07 Ю 1 20 км ясно +23.1 +12.7 52 +26 +34 жарко 1015.6 996.0 +17.3
09 20.07 ЮЗ 1 20 км 5/5 600 м
[Cu hum]
+27.9 +9.7 32 +28 +38 жарко 1014.7 995.4
12 20.07 В 2 20 км 5/5 600 м
[Cu hum]
+30.2 +8.6 26 +30 +37 жарко 1013.1 994.0
15 20.07 ЮЗ 2 20 км 3/3 600 м
[Cu hum]
+29.9 +8.3 26 +29 +32 жарко 1012.1 993.0
18 20.07 Ю 1 20 км 3/0
[Ci fib]
+26.2 +9.1 34 +27 +27 жарко 1012.3 993.0 +30.9
21 20.07 ЮЗ 2 20 км ясно +22.5 +10.6 47 +24 +24 комфорт 1013.6 994.0
00 21.07 З 2 20 км ясно +20.9 +11.0 53 +24 +24 комфорт 1013.6 993.9
03 21.07 З 1 20 км ясно +20.2 +11.4 57 +23 +23 комфорт 1013.7 994.0
06 21.07 З 1 20 км ясно +24.4 +13.0 49 +26 +35 жарко 1014.5 995.0 +20.0
09 21.07 Ю 4 20 км 3/0
[Ci fib]
+30.3 +8.7 26 +30 +40 жарко 1014.3 995.2
12 21.07 Ю 3 20 км 3/3 600 м
[Cu hum]
+31.6 +8.0 23 +30 +39 жарко 1013.5 994.5
15 21.07 ЮЗ 2 20 км ясно +31.5 +8.5 24 +30 +35 жарко 1012.8 993.8
18 21.07 ЮЗ 1 20 км 3/0
[Ac trans Ci fib]
+26.9 +9.3 33 +27 +27 жарко 1013.2 993.9 +32.2
21 21.07 ЮЗ 1 20 км 3/0
[Ci fib]
+23.3 +10.7 45 +25 +25 комфорт 1013.9 994.4
00 22.07 штиль 0 20 км ясно +21.7 +10.8 50 +24 +24 комфорт 1013.3 993.7
03 22.07 ЮЗ 2 20 км ясно +18.9 +10.7 59 +20 +20 по сезону 1013.6 993.8
06 22.07 Ю 2 20 км 1/0
[Ci fib]
+24.1 +12.4 48 +26 +33 жарко 1013.6 994.1 +18.7
09 22.07 ЮЗ 6 20 км 5/0
[Ac trans Ci fib]
+29.2 +11.3 33 +30 +35 жарко 1013.1 994.0
12 22.07 ЮЗ 3 20 км 3/0
[Ci fib]
+32.0 +13.7 33 +33 +45 жарко 1012.1 993.2

 

Местоположение метеостанции Кишинев (Молдова): широта 47.02 долгота 28.98 высота над уровнем моря 173 м.

В архиве по умолчанию представлена погода в Кишиневе за последнюю неделю. Архивные данные за месяц целиком и за предыдущие месяцы, начиная с января 2011 года, Вы можете получить, выбрав интересующий диапазон дат из раскрывающегося списка и нажав кнопку "Ввод!".

Внимание! Время в таблицах - всемирное. Для получения местного времени необходимо прибавить поправку, которая в Кишиневе равна 2 ч.

Смотрите также архив погоды в соседних городах и на ближайших метеорологических станциях:

Погода в Дубоссарах (Молдова) (29 км)
Погода в Тирасполе (Молдова) (49 км)
Погода в Бравичах (Молдова) (57 км)
Погода в Штефан Водэ (Молдова) (67 км)
Погода в Корнестах (Молдова) (76 км)
Погода в Затишье (Одесская область, Украина) (76 км)
Погода в Леове (Молдова) (80 км)
Погода в Заставе (Одесская область, Украина) (81 км)
Погода в Рыбнице (Молдова) (83 км)
Погода в Комрате (Молдова) (84 км)

Пояснения к столбцам:

Ветер - указаны скорость ветра в м/с - средняя за 10 мин, порывы в срок и между сроками (в фигурных скобках) и направление, откуда дует ветер: С - северный, СВ - северо-восточный, В - восточный, ЮВ - юго-восточный, Ю - южный, ЮЗ - юго-западный, З - западный, СЗ - северо-западный.
Видимость - горизонтальная дальность видимости в метрах или километрах. При видимости от 1 до 10 км при отсутствии осадков обычно наблюдается дымка, при ухудшении видимости до 1 км и менее - туман. В сухую погоду видимость может ухудшаться дымом, пылью или мглою.
Явления - указаны атмосферные явления, наблюдавшиеся в срок или в последний час перед сроком; фигурными скобками обозначены явления, наблюдавшиеся между сроками (за 1-3 часа до срока); квадратными скобками обозначены град или гололедные отложения с указанием их диаметра в мм.
Облачность - указаны через наклонную черту общая и нижняя облачность в баллах и высота нижней границы облаков в метрах; квадратными скобками обозначены формы облаков: Ci - перистые, Cs - перисто-слоистые, Cc - перисто-кучевые, Ac - высококучевые, As - высокослоистые, Sc - слоисто-кучевые, Ns - слоисто-дождевые, Cu - кучевые, Cb - кучево-дождевые. Подробнее классификацию облаков см. в Атласе облаков (PDF).
T - Температура воздуха - температура, измеренная на высоте 2 м над землей.
Td - Температура точки росы - температура, при понижении до которой содержащийся в воздухе водяной пар достигнет насыщения.
f - Относительная влажность воздуха - влажноcть воздуха, измеренная на высоте 2 м над землей.
Te - Эффективная температура - температура, которую ощущает одетый по сезону человек в тени. Характеристика душности погоды. При расчете учитывается влияние влажности воздуха и скорости ветра на теплоощущения человека.
Tes - Эффективная температура на солнце - температура, которую ощущает человек, с поправкой на солнечный нагрев. Характеристика знойности погоды. Зависит от высоты солнца над горизонтом, облачности и скорости ветра. Ночью, в пасмурную погоду, а также при ветре 12 м/с и более поправка равна нулю.
P - Атмосферное давление - приведенное к уровню моря атмосферное давление.
Po - Атмосферное давление - измеренное на уровне метеостанции атмосферное давление.
Tmin - Минимальная температура - минимум температуры воздуха на высоте 2 м над землей.
Tmax - Максимальная температура - максимум температуры воздуха на высоте 2 м над землей.
R - Количество осадков - Количество выпавших осадков за период времени, мм. При наведении курсора мыши на число - период времени, за который выпало указанное количество осадков.
R24 - Количество осадков - Количество выпавших осадков за 24 часа, мм.
S - Снежный покров - Высота снежного покрова, см. При наведении курсора мыши на число - состояние снежного покрова и степень покрытия местности в баллах.